Location: Arran
(51.9410°N, 101.7372°W)
Time: 07:12:32
(UTC+00:00)

SWISSCUBE - Pass Details

Date: 13 May 2025
Orbit: 685 x 693 km, 98.4° (Epoch: 20 June)

Event Time Altitude Azimuth Distance (km) Brightness Sun altitude
Rises 06:15:56 0° 12° (NNE) 3,074 ? -19.3°
Reaches altitude 10° 06:18:12 10° 9° (N) 2,154 ? -19.4°
Maximum altitude 06:22:50 60° 290° (WNW) 794 ? -19.5°
Enters shadow 06:25:02 30° 222° (SW) 1,235 ? -19.5°
